Theta_e
298 298 298 298 298 298 297 297 296 294 292 293 295 297 299 300 300 300 300 300 300 300 300 299 299 299 298 297 297 296 297 299 298 301 302 302 305 304 305 303 303 302 304 303 305 305 305 295 299 302 298 296 294 292
298 298 298 297 298 297 297 297 296 295 293 291 295 296 299 299 299 299 300 300 300 300 299 298 298 299 297 298 299 299 298 299 298 299 299 301 304 302 304 303 301 302 300 302 300 300 295 294 294 295 295 295 293 291
298 297 297 297 297 297 296 297 296 295 294 292 294 296 298 299 299 298 299 299 299 299 300 300 299 298 298 299 300 299 299 299 299 299 299 300 303 301 304 302 302 301 299 299 298 296 294 293 292 293 294 293 292 290
298 298 298 297 297 297 296 296 296 295 294 292 293 296 297 298 297 297 297 298 299 300 300 300 300 300 300 300 299 299 299 299 298 299 299 300 303 300 303 301 301 299 299 298 298 296 293 292 291 291 291 292 290 288
298 298 297 297 297 296 296 296 295 295 293 293 295 296 296 297 297 297 296 297 299 299 299 300 300 300 300 300 299 299 299 298 298 298 299 300 299 300 300 298 299 298 298 298 298 296 295 293 291 291 291 290 289 289
298 298 297 297 297 296 296 295 295 295 292 294 295 296 296 296 296 296 297 297 300 300 300 300 299 300 300 300 300 299 299 299 299 298 297 297 299 299 300 301 297 297 297 298 297 295 295 293 291 291 290 289 288 288
297 297 297 296 296 296 296 295 294 293 293 294 295 296 296 297 297 296 296 296 299 299 300 299 300 300 300 299 299 299 299 298 298 298 298 298 298 298 297 301 297 296 296 297 296 295 291 291 290 289 289 288 288 287
298 297 297 297 296 296 295 294 294 293 293 294 295 295 296 296 296 296 296 296 298 298 299 298 299 300 299 298 298 298 298 298 297 297 298 299 298 297 301 296 296 295 295 295 294 295 294 292 290 289 289 288 287 286
297 296 296 296 296 295 295 294 294 293 292 294 295 295 295 295 295 296 296 296 297 297 296 295 299 300 299 298 298 298 298 297 296 297 298 298 298 301 299 296 296 295 295 294 294 294 293 292 290 289 288 287 287 286
296 296 295 295 295 295 294 294 293 291 291 292 294 293 294 296 295 295 296 296 296 296 296 295 295 300 298 297 295 296 295 297 299 297 296 298 300 296 298 297 297 295 295 295 294 291 291 289 289 289 289 288 287 286
296 295 295 295 295 294 294 293 292 291 291 291 292 292 296 296 296 295 295 295 294 295 295 295 296 297 297 298 297 295 296 295 298 298 299 298 299 296 297 297 296 295 295 295 295 294 293 293 291 290 288 287 287 285
295 295 295 294 294 294 293 293 292 291 292 293 293 296 296 295 295 295 296 296 296 296 295 295 296 298 298 298 297 295 297 295 298 294 299 298 296 295 297 297 296 296 295 294 294 293 292 291 291 289 288 287 286 284
294 294 294 294 293 294 293 292 291 291 293 295 295 295 295 294 295 293 296 296 296 294 294 295 296 299 299 298 294 296 296 296 292 299 297 296 293 295 296 296 296 295 295 294 293 292 291 290 289 288 287 285 284 284
294 293 292 292 292 293 293 292 292 294 294 294 294 294 291 292 293 292 295 295 294 295 295 297 295 298 297 294 290 296 292 293 294 295 296 295 295 295 296 296 295 295 295 294 293 292 291 290 289 287 285 284 284 283
293 292 291 292 293 293 292 291 293 293 293 293 293 291 293 292 293 295 295 295 294 295 297 297 296 296 291 292 291 292 294 295 295 296 295 295 296 294 295 296 295 295 295 294 293 292 290 289 288 286 284 283 283 281
292 292 292 292 293 292 292 291 292 292 292 292 292 292 293 294 295 296 296 296 295 297 297 297 293 293 294 293 294 294 295 294 295 292 295 296 296 294 295 295 294 294 293 292 291 290 289 289 287 285 284 283 282 281
291 291 292 292 292 292 291 291 291 291 291 291 291 292 292 294 294 296 298 297 297 297 294 293 292 293 293 294 294 293 293 293 294 296 296 296 295 294 293 293 293 292 291 290 289 288 288 287 285 284 283 282 281 280
292 292 291 292 292 291 291 291 291 291 291 291 292 293 293 294 295 295 297 297 297 297 298 295 294 294 291 293 293 292 294 295 295 295 296 296 295 294 292 292 292 291 290 289 288 287 286 285 284 283 282 281 280 279
292 291 291 291 292 291 291 290 291 291 291 291 292 293 293 294 294 295 296 299 299 299 298 297 293 294 294 291 294 297 298 297 297 296 295 295 294 293 292 291 290 290 289 288 287 286 285 284 283 282 281 280 279 279
290 291 291 291 290 290 290 290 291 292 291 291 292 292 292 293 293 294 296 298 298 298 298 296 294 297 298 299 299 298 298 297 296 296 295 294 294 293 292 291 290 289 288 287 285 285 284 283 282 282 281 280 280 279
290 290 290 290 290 290 290 290 290 291 292 291 292 292 291 291 292 293 294 295 296 295 296 299 298 298 298 299 298 298 297 296 295 294 294 294 293 292 291 290 289 288 288 287 286 285 284 283 282 281 280 280 280 279
290 290 290 290 290 290 290 290 291 291 292 291 292 291 290 288 289 292 292 292 292 294 295 296 296 296 296 298 298 297 296 295 294 293 293 292 292 291 291 290 289 288 287 287 286 285 284 282 281 281 280 280 280 280
290 290 290 290 290 290 289 290 290 291 287 290 291 290 290 289 291 291 289 290 291 292 293 294 295 295 295 296 296 295 294 293 292 292 291 291 290 290 289 288 287 287 287 286 284 283 282 281 280 280 280 280 280 279
290 290 290 290 289 286 290 290 290 290 290 290 288 289 289 290 292 292 292 291 290 291 291 291 292 293 294 294 293 293 292 292 291 290 290 289 289 288 288 287 286 285 284 283 283 282 281 281 280 280 280 280 279 279
290 289 289 284 287 288 285 284 291 289 286 288 289 289 291 291 292 291 290 288 289 288 288 290 290 291 292 292 292 292 291 290 289 289 288 288 287 287 286 285 284 283 282 282 282 281 281 281 281 281 280 279 279 277
283 288 284 286 286 285 285 282 286 287 282 289 289 289 290 288 289 289 286 285 286 287 288 288 289 289 290 291 291 290 289 289 288 288 287 286 285 284 285 284 283 282 282 281 281 282 282 281 281 281 279 278 277 276
283 283 289 289 289 289 287 288 289 286 285 287 285 285 285 286 286 284 284 284 285 286 287 288 288 288 289 289 289 289 288 288 287 287 286 284 283 283 282 283 282 282 282 282 282 282 281 281 280 279 278 277 276 276
290 290 286 290 289 290 286 285 284 284 284 289 289 288 285 285 284 283 283 284 285 286 287 287 287 287 287 287 287 287 286 286 286 285 284 283 283 283 283 283 282 282 282 281 280 279 279 278 277 277 276 275 274 273
289 289 290 287 288 288 289 289 289 288 287 288 289 288 282 282 282 282 283 284 284 285 285 285 286 286 286 286 285 285 285 284 284 284 284 283 283 282 282 282 281 281 280 279 279 277 275 275 274 273 273 273 272 272
289 289 289 288 286 287 286 286 285 284 285 285 284 282 280 280 281 281 282 283 284 284 284 285 285 285 285 285 285 284 284 283 283 283 283 283 282 282 281 280 280 279 278 275 275 274 274 274 273 273 272 272 271 270
288 287 286 285 283 283 283 283 283 283 283 282 281 281 280 279 279 280 281 282 282 283 283 283 283 283 283 283 283 283 283 282 282 282 282 282 281 280 280 279 277 275 274 274 274 274 273 273 272 272 271 271 270 270
286 285 284 282 281 281 281 282 282 282 280 280 279 279 279 279 279 279 279 280 280 281 281 281 282 282 281 282 282 282 281 281 281 280 278 278 278 277 275 274 274 273 273 273 273 273 272 272 271 270 270 270 270 269
283 283 282 281 281 281 281 282 281 279 279 279 278 278 278 278 277 277 278 279 279 280 280 280 280 280 280 280 280 280 279 278 277 276 276 275 275 274 273 273 273 273 273 272 272 272 271 270 270 270 270 269 268 268
Wind_Speed
25 22 21 21 24 23 23 17 14 13 20 19 19 20 19 16 13 12 14 14 11 9 10 11 9 11 9 6 3 5 3 2 2 3 2 2 2 2 2 2 2 1 0 2 0 1 2 11 1 1 7 9 8 8
29 25 21 21 26 25 23 23 18 14 14 17 19 20 19 15 14 14 17 15 23 12 15 15 14 12 11 9 12 4 4 3 3 3 1 2 2 1 2 2 2 1 1 2 2 2 3 6 11 9 8 11 8 10
29 28 23 23 26 24 23 24 22 18 15 16 19 20 18 15 14 11 19 18 26 28 18 11 12 10 9 9 8 6 3 3 4 3 4 2 3 2 2 1 2 2 1 3 4 4 5 7 10 11 11 13 13 12
29 29 26 24 26 27 24 24 23 21 16 16 19 19 17 14 11 11 17 18 17 11 6 5 12 11 12 10 9 11 12 9 7 4 3 2 2 1 2 2 1 0 2 5 3 8 7 4 9 12 14 14 14 12
33 33 29 28 27 27 25 25 24 23 18 18 17 17 17 14 14 12 16 14 13 6 6 10 16 13 12 10 12 10 8 6 4 3 2 1 2 2 2 2 1 3 4 3 3 14 4 8 13 10 9 10 9 8
36 36 34 31 29 28 26 26 22 22 21 19 16 18 17 15 15 15 7 8 15 28 10 3 10 11 11 11 10 9 7 6 4 3 2 2 2 1 2 1 3 3 3 4 2 16 5 15 12 7 7 7 6 6
37 33 36 31 32 30 30 27 25 23 23 21 19 18 20 19 17 4 6 14 14 11 6 4 4 6 10 7 4 4 4 3 3 2 2 2 2 2 2 2 11 8 6 7 16 15 14 16 9 11 8 8 5 6
36 36 37 32 34 32 31 28 26 26 24 23 20 19 17 14 10 11 15 14 12 7 6 3 2 4 8 4 3 2 2 2 3 1 2 1 2 1 2 5 14 12 12 16 16 4 10 15 16 13 10 7 6 5
33 35 36 36 34 32 32 29 26 25 23 22 21 18 16 10 5 10 13 9 7 5 5 2 4 3 8 4 3 2 2 1 0 1 1 0 0 3 3 19 19 19 17 16 11 7 13 15 19 15 12 9 6 7
37 35 33 32 31 34 33 30 27 25 24 24 23 7 5 8 18 15 4 2 2 4 4 3 4 3 7 3 2 2 2 1 1 1 1 1 3 4 5 15 20 21 17 20 17 14 16 17 19 17 13 9 6 8
36 34 34 33 35 35 34 32 29 26 29 19 5 4 25 21 6 4 3 3 1 2 2 4 4 4 4 3 2 1 2 0 1 1 1 1 3 3 11 14 20 18 15 16 12 7 13 12 16 16 14 11 9 9
39 38 36 34 34 33 33 31 31 29 14 6 16 20 14 4 3 3 1 2 1 3 5 6 5 5 5 4 4 2 2 1 1 1 1 2 3 4 12 18 21 18 16 16 13 8 13 12 13 14 12 12 12 10
39 37 35 33 31 31 32 31 24 15 21 27 8 4 3 1 3 4 5 2 3 6 9 8 3 5 4 3 5 2 2 2 0 1 2 4 2 9 15 19 20 18 16 16 13 10 12 12 13 12 13 13 12 10
37 35 33 30 29 30 30 26 21 29 4 4 3 4 2 1 2 3 1 2 3 7 17 15 6 3 3 3 1 3 0 1 2 1 4 2 6 13 18 18 21 21 18 16 14 12 12 12 12 13 12 11 10 10
36 33 29 31 30 30 26 20 25 7 4 4 3 3 1 1 1 3 3 3 3 18 20 11 7 4 2 3 1 3 2 2 4 3 2 3 4 14 20 20 19 17 17 16 14 13 15 14 12 14 14 13 12 10
36 32 31 30 29 28 23 15 19 4 4 3 4 3 2 2 2 3 5 4 13 23 10 5 3 3 2 3 2 3 5 4 3 3 3 8 3 14 18 18 17 15 14 14 13 14 15 14 13 13 13 12 11 9
38 32 31 28 26 25 21 15 6 3 3 3 3 5 4 5 4 4 5 4 22 10 2 3 4 3 3 2 1 3 4 3 3 3 7 6 4 12 17 19 17 14 13 13 13 15 14 15 15 15 14 12 10 8
39 33 29 25 25 25 16 9 4 3 4 5 4 4 5 5 6 8 8 12 9 3 2 2 6 3 4 5 2 3 7 7 7 7 7 3 7 12 17 18 17 14 13 13 14 15 16 16 15 13 12 11 10 9
35 29 24 22 18 12 4 4 4 3 3 3 4 5 5 5 5 4 7 10 9 6 5 3 3 2 3 6 5 3 3 3 3 4 3 3 6 11 15 17 16 15 13 13 15 16 14 13 12 13 11 10 9 8
31 27 23 19 13 5 4 3 3 3 2 2 3 3 4 5 6 5 5 7 9 5 2 1 3 4 3 1 3 1 2 3 2 2 3 4 6 10 14 16 16 16 15 15 15 15 16 17 17 14 12 11 9 7
30 27 21 13 10 6 5 3 3 3 3 2 2 2 2 2 4 4 3 3 2 3 4 7 8 5 8 7 6 5 4 2 2 2 2 1 6 9 12 15 16 16 16 16 17 17 17 16 12 12 12 10 8 9
26 22 16 9 5 4 5 4 4 4 3 3 3 2 3 2 2 2 3 1 3 3 4 3 3 5 8 10 10 8 6 4 4 3 3 1 2 7 12 14 17 18 17 15 14 14 13 13 14 13 10 8 8 8
25 17 6 3 3 4 3 4 3 2 2 2 2 2 2 2 2 3 1 3 4 5 7 8 9 10 8 8 9 8 6 4 3 3 2 2 2 3 7 11 13 14 14 13 13 13 13 13 13 11 9 7 7 8
17 4 2 2 2 2 4 3 2 3 2 1 1 1 2 1 3 1 2 3 2 4 4 5 5 6 6 7 6 5 4 4 3 3 3 3 2 3 6 8 10 10 9 10 12 13 13 12 10 9 8 7 7 9
4 2 1 3 2 3 2 1 2 2 2 3 3 2 2 4 2 2 2 1 1 3 4 3 3 5 7 6 6 5 5 4 2 2 2 1 1 5 9 11 12 12 12 11 11 11 11 10 8 7 7 7 8 8
3 1 2 4 3 3 4 2 3 4 3 4 4 2 4 2 2 4 2 1 1 1 3 2 1 1 3 4 4 5 5 5 4 3 2 2 5 4 6 9 11 11 9 9 9 8 7 7 8 8 7 8 8 8
2 2 2 4 3 3 1 1 2 2 3 4 2 3 2 2 5 2 3 0 0 2 2 2 3 2 2 3 4 4 6 6 5 4 4 6 9 12 10 8 8 8 8 7 6 6 6 6 7 8 8 7 8 9
1 5 4 6 5 5 3 3 4 5 3 3 6 3 5 5 1 3 3 1 1 0 2 1 2 2 2 2 3 5 7 5 5 7 9 10 10 10 10 8 8 7 5 4 4 4 4 4 5 6 6 6 6 6
4 5 7 3 3 3 4 4 3 3 3 5 2 2 3 3 3 3 2 2 3 3 2 2 2 2 3 4 7 7 7 7 7 8 8 10 10 10 9 8 5 4 3 2 2 2 2 2 3 2 2 1 2 4
4 10 5 5 4 4 4 4 3 3 4 5 4 5 5 4 4 3 2 2 3 3 3 2 3 4 5 7 9 10 9 6 5 5 6 7 7 9 8 6 4 3 2 3 3 4 4 4 3 3 2 3 5 8
5 10 3 3 2 3 4 5 4 4 4 4 4 4 6 5 5 3 3 3 2 2 2 3 6 8 8 9 8 7 6 5 4 4 3 5 8 9 8 6 5 5 5 5 6 6 5 4 4 4 5 6 7 9
5 4 5 3 1 3 6 4 4 2 2 3 2 4 6 5 4 4 4 6 6 5 7 8 9 12 11 9 7 5 4 5 6 8 8 9 10 9 9 8 8 7 7 6 6 5 4 4 4 5 6 7 9 10
2 3 2 3 3 4 3 3 2 1 2 2 2 4 4 5 3 3 5 7 8 8 8 9 9 9 9 8 8 9 10 11 12 12 11 11 11 10 10 10 9 8 7 6 5 4 5 5 6 7 8 8 9 9
Wind_Direction
197 196 188 183 186 178 170 171 170 162 160 163 164 166 160 154 145 155 131 139 121 103 104 116 121 132 126 137 138 157 116 17 68 85 137 145 119 97 133 40 311 31 1 84 189 128 182 357 149 308 105 101 109 97
190 193 193 192 184 174 174 170 169 165 151 164 167 170 165 154 144 149 122 118 124 101 117 109 113 114 110 120 127 119 124 118 145 109 141 119 127 71 141 194 21 268 356 140 23 103 90 41 88 111 146 135 133 123
186 189 184 181 181 180 174 174 164 170 163 167 170 169 169 156 148 146 135 123 115 110 94 94 87 128 122 105 106 120 114 122 115 118 133 114 109 162 141 185 156 82 31 90 172 137 117 116 111 114 129 134 142 132
181 181 180 182 179 177 172 174 163 167 164 165 169 168 164 158 144 147 151 143 129 108 103 89 102 104 110 105 93 94 114 112 110 105 90 104 115 203 127 111 151 43 99 125 83 126 117 125 138 130 122 127 129 128
187 182 180 173 172 171 170 169 167 165 149 158 163 161 164 158 139 141 153 143 141 112 129 130 101 100 111 104 95 91 91 106 111 85 69 94 112 139 84 102 163 201 161 178 205 172 151 168 159 144 132 129 123 118
182 183 180 173 175 169 166 164 157 151 147 154 153 157 158 150 150 143 103 125 116 120 109 101 111 120 112 107 90 82 77 69 80 93 100 95 113 109 125 168 151 167 160 178 180 162 158 156 159 152 143 128 119 107
173 179 174 175 169 165 164 161 152 147 149 152 152 153 153 151 157 102 132 147 148 128 107 104 106 143 138 125 102 91 67 69 77 99 80 111 132 116 142 210 169 164 169 149 156 143 129 157 169 162 157 139 129 114
169 172 172 169 165 162 164 161 152 149 155 155 150 150 147 151 139 100 127 138 148 111 94 106 95 128 158 115 98 89 89 87 62 95 118 124 146 132 231 153 158 154 156 149 154 161 174 167 164 158 157 146 136 133
162 163 161 159 158 160 158 152 148 149 157 152 150 138 129 135 94 115 128 114 96 87 110 103 136 154 154 112 104 93 93 77 58 106 81 294 158 227 204 169 169 165 165 170 169 156 160 168 166 167 166 163 171 169
155 155 154 158 159 156 152 148 145 144 147 150 138 119 113 121 120 114 83 81 58 50 62 88 126 119 146 124 86 113 61 97 152 53 6 220 261 233 186 193 177 174 181 174 167 162 167 168 175 178 179 183 189 187
156 159 157 154 153 151 150 147 144 143 141 135 119 99 128 137 110 68 79 71 69 48 95 112 125 126 133 115 132 146 136 57 118 124 268 283 270 221 189 181 178 178 184 186 199 191 188 189 184 186 190 196 196 188
147 146 144 145 147 148 150 148 144 151 156 138 125 122 123 111 90 96 83 125 204 167 145 140 135 107 119 127 108 157 107 36 151 144 225 268 254 199 177 176 180 182 182 186 191 193 183 186 189 193 199 198 187 178
146 146 146 145 147 149 151 147 147 148 133 123 114 101 141 112 106 147 167 182 181 167 164 160 134 122 116 102 82 111 100 189 342 152 235 237 247 192 180 177 180 181 184 187 188 183 182 183 186 195 194 184 181 185
145 144 145 148 147 149 150 138 133 142 110 85 106 116 119 141 205 187 196 159 160 160 159 143 107 108 108 73 111 103 112 134 76 226 238 256 287 200 185 183 184 183 192 194 194 194 196 194 190 185 182 182 187 192
145 144 145 147 150 148 137 143 154 122 66 71 50 89 102 190 145 120 116 106 142 155 148 114 78 93 47 94 51 110 78 216 210 229 235 305 302 193 186 184 189 192 196 199 203 206 201 197 196 190 185 188 191 194
140 137 144 150 152 150 144 131 167 62 65 63 64 94 123 136 117 113 129 108 147 152 126 87 96 67 61 127 120 196 151 222 249 222 290 312 249 192 191 186 184 186 195 203 204 202 198 198 198 194 192 194 200 201
141 137 151 154 153 152 125 120 111 50 61 69 65 75 88 95 97 90 111 127 158 158 103 112 88 171 112 90 194 188 203 219 234 278 306 312 212 191 190 190 192 197 199 200 199 194 194 195 196 197 200 202 203 206
136 145 153 149 148 130 112 82 79 62 62 65 83 61 81 95 91 78 87 141 157 125 68 115 125 108 156 166 228 237 238 263 276 282 304 263 193 184 193 199 202 203 204 201 197 198 200 201 200 197 200 207 211 206
139 142 142 141 138 115 78 60 61 83 62 70 81 86 88 95 80 76 95 125 159 144 113 84 83 169 218 213 216 227 256 280 303 313 307 239 204 190 191 195 203 205 206 204 201 202 202 202 203 208 209 212 212 214
138 142 141 136 132 88 88 84 87 91 116 113 93 75 87 99 103 104 121 125 159 144 120 177 211 215 205 208 164 186 330 324 320 330 332 235 214 204 199 203 204 203 202 198 198 200 200 200 206 211 215 217 222 234
139 140 142 132 84 79 88 95 72 78 96 70 100 65 67 75 88 85 105 139 135 145 211 232 228 264 263 252 250 254 279 280 295 298 311 284 214 210 207 204 205 208 209 208 210 210 211 213 217 220 222 229 228 233
136 145 130 110 62 71 81 69 90 92 68 59 64 22 15 15 43 99 140 160 232 250 232 268 302 287 277 268 258 265 251 243 251 259 263 239 220 218 219 216 213 210 212 217 222 222 215 208 215 219 222 226 237 256
139 135 101 65 76 60 64 97 71 64 98 148 110 28 326 320 98 130 35 243 257 264 265 273 273 278 279 255 245 247 229 216 221 231 236 260 259 223 213 215 214 214 216 219 210 201 201 208 208 210 218 240 253 262
128 88 85 83 64 100 123 123 121 118 119 132 99 283 257 226 138 81 283 265 273 314 314 285 272 268 252 240 232 221 220 221 219 246 273 291 278 216 192 189 195 199 194 195 198 197 199 201 206 211 228 243 257 278
106 76 100 37 78 100 76 18 169 115 153 188 192 250 186 169 174 210 246 262 214 346 341 322 268 256 254 252 239 234 229 211 215 257 284 301 240 194 180 174 174 178 184 189 192 193 196 199 210 229 239 248 270 283
87 155 115 161 156 141 178 132 189 192 149 169 216 206 160 127 206 234 218 325 182 277 325 279 256 264 246 240 233 220 214 211 213 226 215 160 134 126 162 171 172 176 179 177 179 184 200 215 225 229 239 257 270 283
86 234 158 155 160 161 131 177 150 128 175 202 197 164 123 184 234 213 186 8 298 265 287 220 203 220 262 262 238 239 224 207 200 199 179 151 143 133 127 131 142 151 159 173 192 206 218 220 222 234 246 259 272 286
195 186 161 185 194 208 175 172 181 207 224 180 154 176 189 198 209 167 175 255 296 204 127 133 210 218 232 225 206 193 183 177 173 156 151 142 140 141 136 129 137 142 153 173 196 211 213 221 230 239 250 261 275 295
215 194 176 153 175 212 225 217 222 189 182 179 201 170 162 148 158 168 191 206 193 177 176 212 198 203 193 173 161 153 147 138 142 153 155 149 147 148 152 151 146 143 143 160 181 186 181 179 180 186 209 278 328 333
214 182 188 170 176 219 209 208 204 202 199 196 166 141 142 147 150 157 163 178 193 216 242 248 190 178 186 174 160 151 147 147 133 132 132 144 146 150 149 147 142 134 126 122 115 122 121 114 105 87 53 9 351 343
183 184 161 176 198 204 212 201 186 183 179 183 185 181 160 152 149 143 158 152 141 137 129 144 157 148 152 151 145 144 144 141 138 138 142 151 157 153 148 143 135 124 116 108 104 102 95 86 66 35 9 354 347 342
181 178 159 163 193 170 155 177 174 174 144 157 147 153 156 156 160 163 121 129 110 123 123 122 135 132 130 131 129 131 139 142 133 122 126 138 142 139 134 129 121 113 107 102 99 90 77 51 25 10 359 352 349 347
127 141 126 123 139 177 185 171 152 110 119 127 148 163 164 162 150 153 125 130 127 122 125 127 128 127 126 125 125 125 124 125 123 122 123 124 124 122 120 116 111 106 100 90 78 59 36 24 13 4 358 356 358 359